Watonga, OK

4:05 AM CDT on June 23, 2017 (GMT -0500)
Watonga

Weather History for KJWG - November, 2013

Change the Weather History Date:

Saturday, November 16, 2013

  Actual Average Record
Temperature  
Mean Temperature 68 °F -  
Max Temperature 79 °F 57 °F 82 °F (2016)
Min Temperature 57 °F 35 °F 19 °F (2014)
Cooling Degree Days 3    
Growing Degree Days 18 (Base 50)    
Moisture  
Dew Point 53 °F    
Average Humidity 64    
Maximum Humidity 86    
Minimum Humidity 39    
Precipitation  
Precipitation 0.00 in - - ()
Sea Level Pressure  
Sea Level Pressure 29.58 in    
Wind  
Wind Speed 16 mph (NE)    
Max Wind Speed 33 mph    
Max Gust Speed 45 mph    
Visibility 10 miles    
Events      
Averages and records for this station are not official NWS values.
T = Trace of Precipitation, MM = Missing Value Source: NWS Daily Summary

Daily Weather History Graph

Daily Weather History Graph

Search for Another Location

Airport or City:

Trip Planner

Search our weather history database for the weather conditions in past years. The results will help you decide how hot, cold, wet, or windy it might be!

Date:

Astronomy

Nov. 16, 2013 Rise Set
Actual Time 7:11 AM CST 5:25 PM CST
Civil Twilight 6:43 AM CST 5:52 PM CST
Nautical Twilight 6:12 AM CST 6:23 PM CST
Astronomical Twilight 5:42 AM CST 6:54 PM CST
Moon 5:00 PM CST (11/16) 6:10 AM CST (11/16)
Length of Visible Light 11h 09m
Length of Day
10h 14m
Waxing Gibbous, 99% of the Moon is Illuminated
Nov 16
Waxing Gibbous
Nov 17
Full
Nov 25
Last Quarter
Dec 2
New
Dec 9
First Quarter

Hourly Weather History & Observations

Time (CST) Temp. Dew Point Humidity Pressure Visibility Wind Dir Wind Speed Gust Speed Precip Events Conditions
12:15 AM 59.4 °F 51.8 °F 76% 29.69 in 10.0 mi ESE 13.8 mph 23.0 mph N/A   Clear
12:35 AM 59.7 °F 52.2 °F 76% 29.69 in 10.0 mi ESE 11.5 mph 19.6 mph N/A   Clear
12:55 AM 59.4 °F 52.7 °F 79% 29.68 in 10.0 mi ESE 15.0 mph 20.7 mph N/A   Clear
1:15 AM 59.0 °F 52.7 °F 80% 29.68 in 10.0 mi ESE 17.3 mph 20.7 mph N/A   Clear
1:35 AM 59.0 °F 52.7 °F 80% 29.68 in 10.0 mi ESE 16.1 mph 23.0 mph N/A   Clear
1:55 AM 58.3 °F 52.7 °F 82% 29.67 in 10.0 mi ESE 12.7 mph 18.4 mph N/A   Clear
2:15 AM 57.2 °F 52.7 °F 85% 29.67 in 10.0 mi East 10.4 mph - N/A   Clear
2:35 AM 57.0 °F 52.9 °F 86% 29.67 in 10.0 mi East 10.4 mph - N/A   Clear
2:55 AM 58.1 °F 53.2 °F 84% 29.66 in 10.0 mi ESE 13.8 mph 17.3 mph N/A   Scattered Clouds
3:15 AM 59.0 °F 53.4 °F 82% 29.66 in 10.0 mi ESE 11.5 mph 19.6 mph N/A   Overcast
3:35 AM 58.6 °F 53.2 °F 82% 29.65 in 10.0 mi ESE 12.7 mph 17.3 mph N/A   Mostly Cloudy
3:55 AM 57.7 °F 53.2 °F 85% 29.65 in 10.0 mi ESE 10.4 mph 18.4 mph N/A   Clear
4:15 AM 57.7 °F 53.6 °F 86% 29.64 in 10.0 mi ESE 10.4 mph 20.7 mph N/A   Clear
4:35 AM 57.9 °F 53.4 °F 85% 29.64 in 10.0 mi SE 10.4 mph - N/A   Clear
4:55 AM 58.5 °F 53.1 °F 82% 29.64 in 10.0 mi ESE 12.7 mph 17.3 mph N/A   Clear
5:15 AM 59.0 °F 53.1 °F 81% 29.63 in 10.0 mi East 10.4 mph - N/A   Clear
5:35 AM 59.9 °F 52.9 °F 78% 29.62 in 10.0 mi East 16.1 mph 20.7 mph N/A   Clear
5:55 AM 60.3 °F 52.9 °F 77% 29.62 in 10.0 mi East 16.1 mph 26.5 mph N/A   Clear
6:15 AM 60.3 °F 52.7 °F 76% 29.61 in 10.0 mi ESE 16.1 mph 23.0 mph N/A   Clear
6:35 AM 60.8 °F 52.9 °F 75% 29.61 in 10.0 mi East 20.7 mph 25.3 mph N/A   Clear
6:55 AM 60.6 °F 52.9 °F 76% 29.61 in 10.0 mi East 15.0 mph 21.9 mph N/A   Clear
7:15 AM 60.6 °F 53.2 °F 77% 29.61 in 10.0 mi ENE 16.1 mph - N/A   Clear
7:35 AM 60.3 °F 53.6 °F 79% 29.63 in 10.0 mi NNE 18.4 mph 24.2 mph N/A   Clear
7:55 AM 61.0 °F 53.8 °F 77% 29.63 in 10.0 mi NNE 18.4 mph 27.6 mph N/A   Scattered Clouds
8:15 AM 61.2 °F 54.0 °F 77% 29.64 in 10.0 mi NE 17.3 mph 24.2 mph N/A   Mostly Cloudy
8:35 AM 61.7 °F 54.3 °F 77% 29.64 in 10.0 mi ENE 15.0 mph 27.6 mph N/A   Scattered Clouds
8:55 AM 61.7 °F 54.5 °F 77% 29.63 in 10.0 mi ENE 19.6 mph 27.6 mph N/A   Clear
9:15 AM 61.7 °F 54.7 °F 78% 29.64 in 10.0 mi NE 18.4 mph 25.3 mph N/A   Clear
9:35 AM 63.7 °F 55.4 °F 74% 29.63 in 10.0 mi NNE 20.7 mph 29.9 mph N/A   Clear
9:55 AM 65.5 °F 55.9 °F 71% 29.62 in 10.0 mi NNE 24.2 mph 33.4 mph N/A   Clear
10:15 AM 67.3 °F 55.9 °F 67% 29.62 in 10.0 mi NNE 26.5 mph 35.7 mph N/A   Clear
10:35 AM 68.2 °F 55.9 °F 65% 29.61 in 10.0 mi NNE 24.2 mph 33.4 mph N/A   Clear
10:55 AM 70.2 °F 56.1 °F 61% 29.62 in 10.0 mi NNE 25.3 mph 32.2 mph N/A   Clear
11:15 AM 70.0 °F 56.5 °F 62% 29.61 in 10.0 mi North 27.6 mph 40.3 mph N/A   Clear
11:35 AM 70.3 °F 56.7 °F 62% 29.60 in 10.0 mi North 25.3 mph 35.7 mph N/A   Clear
11:55 AM 72.5 °F 57.2 °F 59% 29.59 in 10.0 mi NNE 23.0 mph 34.5 mph N/A   Clear
12:15 PM 71.1 °F 56.3 °F 60% 29.58 in 10.0 mi North 28.8 mph 35.7 mph N/A   Clear
12:35 PM 71.6 °F 56.7 °F 59% 29.57 in 10.0 mi NE 28.8 mph 35.7 mph N/A   Clear
12:55 PM 73.0 °F 56.1 °F 55% 29.55 in 10.0 mi NE 25.3 mph 35.7 mph N/A   Clear
1:15 PM 74.8 °F 56.1 °F 52% 29.54 in 10.0 mi NNE 23.0 mph 27.6 mph N/A   Clear
1:35 PM 76.5 °F 54.9 °F 47% 29.53 in 10.0 mi North 28.8 mph 35.7 mph N/A   Clear
1:55 PM 77.4 °F 53.1 °F 43% 29.51 in 10.0 mi North 29.9 mph 43.7 mph N/A   Clear
2:15 PM 77.9 °F 53.2 °F 42% 29.50 in 10.0 mi NNE 33.4 mph 44.9 mph N/A   Clear
2:35 PM 78.8 °F 52.7 °F 40% 29.49 in 10.0 mi North 33.4 mph 41.4 mph N/A   Clear
2:55 PM 79.0 °F 53.2 °F 41% 29.49 in 10.0 mi North 26.5 mph 34.5 mph N/A   Clear
3:15 PM 79.2 °F 52.5 °F 39% 29.48 in 10.0 mi North 31.1 mph 38.0 mph N/A   Clear
3:35 PM 79.0 °F 53.2 °F 41% 29.49 in 10.0 mi NNE 20.7 mph 32.2 mph N/A   Clear
3:55 PM 77.4 °F 51.4 °F 40% 29.49 in 10.0 mi North 21.9 mph 29.9 mph N/A   Scattered Clouds
4:15 PM 78.3 °F 51.1 °F 39% 29.49 in 10.0 mi NNE 21.9 mph 29.9 mph N/A   Scattered Clouds
4:35 PM 77.5 °F 50.7 °F 39% 29.49 in 10.0 mi NNE 20.7 mph 27.6 mph N/A   Scattered Clouds
4:55 PM 76.1 °F 50.9 °F 41% 29.50 in 10.0 mi NNE 17.3 mph 24.2 mph N/A   Scattered Clouds
5:15 PM 75.4 °F 50.9 °F 42% 29.49 in 10.0 mi NE 11.5 mph - N/A   Scattered Clouds
5:35 PM 74.3 °F 50.7 °F 43% 29.49 in 10.0 mi NE 15.0 mph 21.9 mph N/A   Scattered Clouds
5:55 PM 73.2 °F 50.9 °F 45% 29.48 in 10.0 mi ENE 13.8 mph 23.0 mph N/A   Clear
6:15 PM 72.5 °F 51.4 °F 47% 29.49 in 10.0 mi East 12.7 mph 19.6 mph N/A   Clear
6:35 PM 71.4 °F 51.4 °F 49% 29.50 in 10.0 mi East 10.4 mph - N/A   Clear
6:55 PM 70.5 °F 51.4 °F 51% 29.50 in 10.0 mi East 10.4 mph - N/A   Clear
7:15 PM 69.6 °F 50.4 °F 50% 29.51 in 10.0 mi ENE 11.5 mph - N/A   Mostly Cloudy
7:35 PM 69.8 °F 49.1 °F 48% 29.51 in 10.0 mi NNE 11.5 mph 17.3 mph N/A   Overcast
7:55 PM 66.7 °F 50.0 °F 55% 29.52 in 10.0 mi North 8.1 mph - N/A   Overcast
8:15 PM 68.2 °F 51.1 °F 54% 29.52 in 10.0 mi NNE 9.2 mph - N/A   Overcast
8:35 PM 68.2 °F 52.7 °F 58% 29.53 in 10.0 mi NE 8.1 mph - N/A   Scattered Clouds
8:55 PM 68.2 °F 53.6 °F 60% 29.53 in 10.0 mi ENE 10.4 mph - N/A   Scattered Clouds
9:15 PM 68.0 °F 53.6 °F 60% 29.54 in 10.0 mi NNE 11.5 mph - N/A   Clear
9:35 PM 67.6 °F 53.6 °F 61% 29.54 in 10.0 mi NNE 13.8 mph 19.6 mph N/A   Clear
9:55 PM 67.1 °F 53.1 °F 61% 29.54 in 10.0 mi ENE 13.8 mph 19.6 mph N/A   Clear
10:15 PM 66.0 °F 52.7 °F 62% 29.54 in 10.0 mi NE 13.8 mph - N/A   Clear
10:35 PM 65.1 °F 52.5 °F 64% 29.54 in 10.0 mi ENE 11.5 mph - N/A   Clear
10:55 PM 64.4 °F 52.2 °F 64% 29.54 in 10.0 mi ENE 11.5 mph - N/A   Clear
11:15 PM 65.3 °F 51.1 °F 60% 29.54 in 10.0 mi NE 15.0 mph 18.4 mph N/A   Clear
11:35 PM 64.8 °F 50.5 °F 60% 29.54 in 10.0 mi NNE 13.8 mph 19.6 mph N/A   Clear
11:55 PM 64.9 °F 50.9 °F 60% 29.54 in 10.0 mi NNE 17.3 mph 24.2 mph N/A   Clear